FW4010 Weather Reports


Display with metric or nautical units.
time (UTC)temp
F
wind
direction
speed
MPH
gust
MPH
rain 1hr
in
rain 24hr
in
rain mn
in
humidity
%
barometer
mb
20190426093513 29 52 0.0 2.0 0.00 0.00 0.00 79 1021.0
20190426093027 29 52 0.0 2.0 0.00 0.00 0.00 77 1021.0
20190426092519 29 52 1.0 2.0 0.00 0.00 0.00 75 1021.0
20190426092012 29 52 0.0 2.0 0.00 0.00 0.00 76 1020.9
20190426091544 30 52 0.0 2.0 0.00 0.00 0.00 75 1020.9
20190426091013 30 51 0.0 2.0 0.00 0.00 0.00 75 1020.9
20190426090508 30 51 0.0 2.0 0.00 0.00 0.00 74 1020.8
20190426090009 30 51 0.0 2.0 0.00 0.00 0.00 74 1020.9
20190426085507 30 51 0.0 2.0 0.00 0.00 0.00 75 1020.8
20190426085008 31 51 1.0 2.0 0.00 0.00 0.00 73 1020.9
20190426084511 31 51 0.0 2.0 0.00 0.00 0.00 72 1020.8
20190426084004 31 51 0.0 2.0 0.00 0.00 0.00 73 1020.9
20190426083502 31 51 0.0 2.0 0.00 0.00 0.00 71 1020.8
20190426083002 31 51 0.0 2.0 0.00 0.00 0.00 73 1020.7
20190426082104 32 48 0.0 1.0 0.00 0.00 0.00 72 1020.8
20190426081652 32 48 0.0 2.0 0.00 0.00 0.00 73 1020.7
20190426081057 32 48 0.0 2.0 0.00 0.00 0.00 72 1020.7
20190426080556 32 48 0.0 1.0 0.00 0.00 0.00 73 1020.7
20190426080115 32 48 0.0 3.0 0.00 0.00 0.00 75 1020.6
20190426075554 32 48 0.0 3.0 0.00 0.00 0.00 76 1020.6
20190426075056 32 79 0.0 2.0 0.00 0.00 0.00 77 1020.6
20190426074656 32 79 0.0 2.0 0.00 0.00 0.00 76 1020.6
20190426074059 32 84 1.0 3.0 0.00 0.00 0.00 76 1020.6
20190426073553 32 84 1.0 3.0 0.00 0.00 0.00 75 1020.6
20190426073131 32 149 0.0 2.0 0.00 0.00 0.00 76 1020.5
20190426072552 32 149 0.0 2.0 0.00 0.00 0.00 75 1020.5
20190426072052 33 149 0.0 2.0 0.00 0.00 0.00 74 1020.4
20190426071627 33 149 0.0 2.0 0.00 0.00 0.00 74 1020.3
20190426071050 33 149 0.0 2.0 0.00 0.00 0.00 74 1020.4
20190426070550 34 149 0.0 2.0 0.00 0.00 0.00 73 1020.2
20190426070209 34 149 0.0 2.0 0.00 0.00 0.00 72 1020.2
20190426065554 34 149 0.0 2.0 0.00 0.00 0.00 72 1020.2
20190426065050 35 149 0.0 2.0 0.00 0.00 0.00 71 1020.1
20190426064624 35 149 1.0 2.0 0.00 0.00 0.00 70 1020.1
20190426064050 35 149 0.0 1.0 0.00 0.00 0.00 71 1020.0
20190426063554 35 149 0.0 2.0 0.00 0.00 0.00 71 1020.0
20190426063150 35 149 0.0 2.0 0.00 0.00 0.00 70 1020.0
20190426062548 36 149 0.0 1.0 0.00 0.00 0.00 70 1019.9
20190426062048 36 149 0.0 1.0 0.00 0.00 0.00 69 1019.9
20190426061623 36 149 0.0 2.0 0.00 0.00 0.00 69 1019.8
20190426061047 36 149 0.0 2.0 0.00 0.00 0.00 69 1019.8
20190426060548 37 149 0.0 1.0 0.00 0.00 0.00 68 1019.8
20190426060119 37 149 0.0 2.0 0.00 0.00 0.00 68 1019.7
20190426055545 38 149 0.0 2.0 0.00 0.00 0.00 66 1019.7
20190426055049 38 149 0.0 1.0 0.00 0.00 0.00 66 1019.7
20190426054605 37 149 0.0 2.0 0.00 0.00 0.00 67 1019.5
20190426054044 37 149 0.0 2.0 0.00 0.00 0.00 68 1019.5
20190426053548 38 149 0.0 1.0 0.00 0.00 0.00 68 1019.5
20190426053155 38 149 0.0 1.0 0.00 0.00 0.00 67 1019.5
20190426052543 38 149 0.0 1.0 0.00 0.00 0.00 65 1019.5
20190426052043 39 149 0.0 2.0 0.00 0.00 0.00 65 1019.5
20190426051623 39 149 0.0 2.0 0.00 0.00 0.00 64 1019.3
20190426051044 39 149 0.0 2.0 0.00 0.00 0.00 65 1019.3
20190426050551 40 149 0.0 2.0 0.00 0.00 0.00 63 1019.3
20190426050207 41 149 0.0 2.0 0.00 0.00 0.00 62 1019.3
20190426045540 41 149 0.0 2.0 0.00 0.00 0.00 60 1019.2
20190426045040 42 149 0.0 1.0 0.00 0.00 0.00 59 1019.2
20190426044625 42 149 0.0 2.0 0.00 0.00 0.00 58 1019.1
20190426044048 43 149 0.0 2.0 0.00 0.00 0.00 55 1019.1
20190426043540 43 149 0.0 2.0 0.00 0.00 0.00 55 1019.0
20190426043135 43 149 0.0 2.0 0.00 0.00 0.00 54 1019.0
20190426042542 44 149 1.0 2.0 0.00 0.00 0.00 53 1019.0
20190426042040 44 149 0.0 2.0 0.00 0.00 0.00 55 1019.1
20190426041628 44 149 0.0 2.0 0.00 0.00 0.00 54 1019.0
20190426041039 44 149 0.0 3.0 0.00 0.00 0.00 53 1018.9
20190426040543 44 149 0.0 3.0 0.00 0.00 0.00 53 1018.9
20190426040114 45 149 1.0 3.0 0.00 0.00 0.00 54 1018.9
20190426035538 45 142 0.0 3.0 0.00 0.00 0.00 53 1019.0
20190426035044 45 192 1.0 4.0 0.00 0.00 0.00 52 1018.8
20190426034608 45 192 1.0 5.0 0.00 0.00 0.00 51 1018.9
20190426034038 45 189 2.0 5.0 0.00 0.00 0.00 50 1018.9
20190426033538 45 206 2.0 5.0 0.00 0.00 0.00 52 1018.9
20190426033107 45 182 2.0 5.0 0.00 0.00 0.00 51 1018.8
20190426032541 45 137 2.0 7.0 0.00 0.00 0.00 51 1018.9
20190426032042 45 215 1.0 5.0 0.00 0.00 0.00 51 1018.8
20190426031550 46 226 1.0 5.0 0.00 0.00 0.00 51 1018.9
20190426031037 46 195 2.0 4.0 0.00 0.00 0.00 49 1018.8
20190426030540 46 250 2.0 4.0 0.00 0.00 0.00 48 1018.8
20190426030100 46 163 2.0 4.0 0.00 0.00 0.00 48 1018.7
20190426025536 46 161 2.0 5.0 0.00 0.00 0.00 49 1018.7
20190426025036 46 211 2.0 5.0 0.00 0.00 0.00 48 1018.7
20190426024622 46 151 2.0 5.0 0.00 0.00 0.00 48 1018.7
20190426024039 47 144 2.0 5.0 0.00 0.00 0.00 48 1018.7
20190426023542 47 194 2.0 5.0 0.00 0.00 0.00 49 1018.7
20190426023131 47 161 2.0 6.0 0.00 0.00 0.00 48 1018.7
20190426022536 47 198 3.0 6.0 0.00 0.00 0.00 48 1018.7
20190426022036 47 143 2.0 7.0 0.00 0.00 0.00 47 1018.7
20190426021609 47 215 3.0 7.0 0.00 0.00 0.00 46 1018.6
20190426021034 47 223 2.0 6.0 0.00 0.00 0.00 47 1018.6
20190426020534 47 96 3.0 6.0 0.00 0.00 0.00 45 1018.6
20190426020147 47 209 3.0 6.0 0.00 0.00 0.00 45 1018.5
20190426015536 47 121 2.0 6.0 0.00 0.00 0.00 46 1018.5
20190426015034 48 167 3.0 7.0 0.00 0.00 0.00 44 1018.6
20190426014617 48 171 2.0 7.0 0.00 0.00 0.00 45 1018.6
20190426014034 48 175 2.0 7.0 0.00 0.00 0.00 46 1018.6
20190426013537 47 217 2.0 7.0 0.00 0.00 0.00 47 1018.6
20190426013110 47 228 3.0 7.0 0.00 0.00 0.00 48 1018.7
20190426012534 48 185 3.0 7.0 0.00 0.00 0.00 45 1018.6
20190426012032 48 225 2.0 6.0 0.00 0.00 0.00 47 1018.7
20190426011633 48 269 3.0 6.0 0.00 0.00 0.00 47 1018.8
20190426011034 48 195 2.0 6.0 0.00 0.00 0.00 48 1018.8
20190426010532 49 219 2.0 5.0 0.00 0.00 0.00 46 1018.7
20190426010101 48 229 3.0 5.0 0.00 0.00 0.00 45 1018.7
20190426005533 47 223 2.0 6.0 0.00 0.00 0.00 46 1018.8
20190426005031 47 224 2.0 6.0 0.00 0.00 0.00 46 1018.7
20190426004607 47 118 2.0 7.0 0.00 0.00 0.00 45 1018.8
20190426004031 48 233 3.0 7.0 0.00 0.00 0.00 45 1018.7
20190426003530 48 178 2.0 7.0 0.00 0.00 0.00 42 1018.7
20190426003109 48 128 2.0 7.0 0.00 0.00 0.00 47 1018.8
20190426002534 48 233 2.0 5.0 0.00 0.00 0.00 45 1018.8
20190426002031 49 205 2.0 5.0 0.00 0.00 0.00 45 1018.8
20190426001627 48 254 1.0 7.0 0.00 0.00 0.00 46 1018.8
20190426001030 48 189 3.0 7.0 0.00 0.00 0.00 46 1018.8
20190426000538 47 220 2.0 7.0 0.00 0.00 0.00 46 1018.9
20190426000043 48 209 3.0 7.0 0.00 0.00 0.00 47 1018.9
20190425235529 49 234 3.0 7.0 0.00 0.00 0.00 43 1018.8
20190425235030 48 198 2.0 4.0 0.00 0.00 0.00 45 1018.8
20190425234704 48 222 2.0 4.0 0.00 0.00 0.00 44 1018.8
20190425234027 47 227 1.0 4.0 0.00 0.00 0.00 45 1018.9
20190425233527 46 143 1.0 4.0 0.00 0.00 0.00 47 1018.9
20190425233043 46 201 2.0 4.0 0.00 0.00 0.00 47 1019.0
20190425232527 46 221 2.0 6.0 0.00 0.00 0.00 47 1019.0
20190425232026 46 205 2.0 6.0 0.00 0.00 0.00 47 1019.0
20190425231607 46 193 1.0 3.0 0.00 0.00 0.00 46 1019.0
20190425231026 46 11 0.0 5.0 0.00 0.00 0.00 47 1019.1
20190425230526 45 24 0.0 5.0 0.00 0.00 0.00 47 1019.1
20190425230056 45 279 2.0 5.0 0.00 0.00 0.00 46 1019.0
20190425225526 46 210 1.0 4.0 0.00 0.00 0.00 48 1019.0
20190425225025 46 227 2.0 5.0 0.00 0.00 0.00 47 1019.0
20190425224551 45 220 1.0 5.0 0.00 0.00 0.00 45 1019.0
20190425224026 46 207 2.0 5.0 0.00 0.00 0.00 49 1019.0
20190425223526 46 219 1.0 4.0 0.00 0.00 0.00 48 1019.0
20190425223041 46 212 1.0 4.0 0.00 0.00 0.00 43 1019.0
20190425222525 47 184 1.0 3.0 0.00 0.00 0.00 40 1018.9
20190425222024 46 131 0.0 2.0 0.00 0.00 0.00 41 1019.0
20190425221601 45 48 1.0 5.0 0.00 0.00 0.00 42 1018.9
20190425221024 45 82 1.0 5.0 0.00 0.00 0.00 42 1019.0
20190425220524 46 5 1.0 3.0 0.00 0.00 0.00 43 1019.0
20190425220037 46 85 0.0 3.0 0.00 0.00 0.00 46 1018.9
20190425215523 45 186 1.0 5.0 0.00 0.00 0.00 44 1019.0
20190425215023 46 238 1.0 8.0 0.00 0.00 0.00 40 1018.9
20190425214604 47 288 2.0 8.0 0.00 0.00 0.00 43 1018.9
20190425214028 47 299 2.0 6.0 0.00 0.00 0.00 45 1019.0
20190425213522 46 136 1.0 6.0 0.00 0.00 0.00 46 1019.0
20190425213106 46 138 2.0 10.0 0.00 0.00 0.00 44 1019.0
20190425212522 46 13 1.0 11.0 0.00 0.00 0.00 45 1019.0
20190425212020 47 342 3.0 11.0 0.00 0.00 0.00 46 1019.0
20190425211544 46 360 3.0 6.0 0.00 0.00 0.00 48 1019.0
20190425211018 45 22 1.0 4.0 0.00 0.00 0.00 51 1019.0
20190425210524 44 231 1.0 4.0 0.00 0.00 0.00 52 1019.0
20190425210023 44 198 1.0 3.0 0.00 0.00 0.00 55 1019.1
20190425205516 43 119 1.0 3.0 0.00 0.00 0.00 55 1018.9
20190425205018 43 306 1.0 3.0 0.00 0.00 0.00 54 1019.0
20190425204536 42 147 1.0 4.0 0.00 0.00 0.00 56 1019.0
20190425204013 41 181 1.0 4.0 0.00 0.00 0.00 57 1019.0
20190425203516 41 222 1.0 3.0 0.00 0.00 0.00 60 1019.0
20190425203019 41 246 1.0 3.0 0.00 0.00 0.00 63 1019.0
20190425202511 41 209 1.0 3.0 0.00 0.00 0.00 64 1019.1
20190425202011 41 215 1.0 3.0 0.00 0.00 0.00 59 1018.9
20190425201526 40 146 0.0 2.0 0.00 0.00 0.00 59 1018.9
20190425201010 41 146 1.0 2.0 0.00 0.00 0.00 60 1019.1
20190425200513 40 273 0.0 3.0 0.00 0.00 0.00 60 1019.1
20190425200035 41 273 1.0 3.0 0.00 0.00 0.00 60 1019.1
20190425195509 41 203 0.0 3.0 0.00 0.01 0.00 61 1019.0
20190425195009 41 105 1.0 3.0 0.00 0.01 0.00 60 1019.0
20190425194601 41 230 0.0 3.0 0.00 0.01 0.00 62 1019.0
20190425194009 41 251 1.0 3.0 0.00 0.01 0.00 61 1019.1
20190425193510 41 256 0.0 3.0 0.00 0.01 0.00 61 1018.9
20190425193043 40 104 1.0 3.0 0.00 0.01 0.00 61 1018.9
20190425192506 40 323 0.0 4.0 0.00 0.01 0.00 59 1018.9
20190425192005 40 329 1.0 4.0 0.00 0.01 0.00 61 1018.9
20190425191532 39 5 1.0 4.0 0.00 0.01 0.00 60 1018.9
20190425191004 39 305 1.0 3.0 0.00 0.01 0.00 60 1018.9
20190425190504 39 309 1.0 3.0 0.00 0.01 0.00 62 1018.8
20190425190011 39 343 1.0 4.0 0.00 0.01 0.00 63 1018.7
20190425185502 39 11 1.0 4.0 0.00 0.01 0.00 63 1018.8
20190425185002 39 323 2.0 6.0 0.00 0.01 0.00 63 1018.7
20190425184503 39 344 2.0 6.0 0.00 0.01 0.00 63 1018.6
20190425184100 38 342 1.0 3.0 0.00 0.01 0.00 64 1018.6
20190425183559 38 321 1.0 4.0 0.00 0.01 0.00 65 1018.7
20190425183252 38 57 1.0 5.0 0.00 0.01 0.00 65 1018.8
20190425182607 38 20 1.0 8.0 0.00 0.01 0.00 65 1018.9
20190425182056 38 350 3.0 8.0 0.00 0.01 0.00 65 1018.9
20190425181713 38 317 1.0 4.0 0.00 0.01 0.00 66 1019.0
20190425181053 37 105 1.0 5.0 0.00 0.01 0.00 66 1018.9
20190425180553 37 335 1.0 5.0 0.00 0.01 0.00 65 1018.9
20190425180124 37 27 1.0 5.0 0.00 0.01 0.00 65 1018.8
20190425175552 37 30 1.0 5.0 0.00 0.01 0.00 66 1018.8
20190425175058 37 360 2.0 5.0 0.00 0.01 0.00 68 1018.9
20190425174605 36 350 2.0 8.0 0.00 0.01 0.00 68 1018.9
20190425174049 36 355 3.0 8.0 0.00 0.01 0.00 68 1018.9
20190425173550 36 5 2.0 9.0 0.00 0.01 0.00 70 1018.9
20190425173117 36 295 2.0 9.0 0.00 0.01 0.00 70 1018.7
20190425172545 35 11 1.0 6.0 0.00 0.01 0.00 70 1018.7
20190425172043 35 360 2.0 6.0 0.00 0.01 0.00 70 1018.8
20190425171617 35 355 1.0 6.0 0.00 0.01 0.00 71 1018.8
20190425171040 35 340 2.0 6.0 0.00 0.01 0.00 71 1018.8
20190425170539 34 21 2.0 6.0 0.00 0.01 0.00 71 1018.8
20190425170109 34 39 1.0 6.0 0.00 0.01 0.00 73 1018.8
20190425165537 34 341 1.0 6.0 0.00 0.02 0.00 72 1018.9
20190425165046 34 355 0.0 4.0 0.00 0.02 0.00 72 1018.9
20190425164614 33 53 1.0 4.0 0.00 0.02 0.00 73 1018.9
20190425164034 33 82 1.0 4.0 0.00 0.02 0.00 73 1018.9
20190425163534 33 360 0.0 4.0 0.00 0.02 0.00 73 1018.9
20190425163144 33 10 1.0 5.0 0.00 0.02 0.00 74 1019.0
20190425162534 33 9 1.0 5.0 0.00 0.02 0.00 73 1018.9
20190425162032 32 37 1.0 5.0 0.00 0.02 0.00 74 1018.9
20190425161551 32 318 1.0 5.0 0.00 0.02 0.00 74 1018.8
20190425161028 32 343 1.0 5.0 0.00 0.02 0.00 74 1018.8
20190425160526 32 332 1.0 5.0 0.00 0.02 0.00 75 1018.8
20190425160111 31 34 1.0 4.0 0.00 0.02 0.00 76 1018.9
20190425155525 31 57 1.0 4.0 0.00 0.02 0.00 76 1018.9
20190425155023 31 12 2.0 5.0 0.00 0.02 0.00 77 1018.9
20190425154531 30 360 2.0 5.0 0.00 0.02 0.00 79 1018.9
20190425154022 30 19 1.0 4.0 0.00 0.02 0.00 80 1018.7
20190425153525 29 57 1.0 4.0 0.00 0.02 0.00 81 1018.7
20190425153059 29 46 1.0 3.0 0.00 0.02 0.00 84 1018.7
20190425152519 29 46 0.0 0.0 0.00 0.02 0.00 84 1018.7
20190425152023 29 46 0.0 0.0 0.00 0.02 0.00 85 1018.7
20190425151620 29 52 0.0 0.0 0.00 0.02 0.00 83 1018.7
20190425151017 29 54 0.0 0.0 0.00 0.02 0.00 85 1018.6
20190425150523 29 89 0.0 0.0 0.00 0.02 0.00 85 1018.7
20190425150045 28 89 0.0 0.0 0.00 0.02 0.00 86 1018.7
20190425145521 28 89 0.0 0.0 0.00 0.02 0.00 86 1018.7
20190425145021 28 89 0.0 0.0 0.00 0.02 0.00 85 1018.7
20190425144540 28 89 0.0 0.0 0.00 0.02 0.00 86 1018.5
20190425143520 28 89 0.0 0.0 0.00 0.02 0.00 86 1018.7
20190425143029 28 89 0.0 0.0 0.00 0.02 0.00 86 1018.5
20190425142515 28 89 0.0 2.0 0.00 0.02 0.00 86 1018.7
20190425142016 29 89 0.0 2.0 0.00 0.02 0.00 85 1018.5
20190425141529 29 90 1.0 2.0 0.00 0.02 0.00 85 1018.6
20190425141022 29 25 1.0 2.0 0.00 0.02 0.00 85 1018.4
20190425140516 28 105 0.0 2.0 0.00 0.02 0.00 86 1018.6
20190425140040 29 105 0.0 2.0 0.00 0.02 0.00 85 1018.5
20190425135515 29 105 0.0 2.0 0.00 0.02 0.00 85 1018.6
20190425135011 29 105 0.0 2.0 0.00 0.02 0.00 84 1018.6
20190425134518 29 105 0.0 2.0 0.00 0.02 0.00 83 1018.6
20190425134017 30 105 0.0 3.0 0.00 0.02 0.00 82 1018.5
20190425133513 30 105 0.0 3.0 0.00 0.02 0.00 82 1018.6
20190425133027 29 42 1.0 2.0 0.00 0.02 0.00 83 1018.8
20190425132511 30 331 1.0 3.0 0.00 0.02 0.00 82 1018.5
20190425132010 29 107 1.0 3.0 0.00 0.02 0.00 83 1018.8
20190425131538 29 78 0.0 2.0 0.00 0.02 0.00 84 1018.5
20190425131014 29 78 0.0 3.0 0.00 0.02 0.00 82 1018.7
20190425130510 30 78 1.0 3.0 0.00 0.02 0.00 83 1018.6
20190425130020 30 78 0.0 2.0 0.00 0.02 0.00 82 1018.7
20190425125513 30 78 0.0 2.0 0.00 0.02 0.00 82 1018.6
20190425125008 29 69 0.0 2.0 0.00 0.02 0.00 84 1018.6
20190425124518 30 69 1.0 2.0 0.00 0.02 0.00 83 1018.5
20190425124010 29 57 0.0 1.0 0.00 0.02 0.00 84 1018.6
20190425123512 30 101 0.0 3.0 0.00 0.02 0.00 84 1018.5
20190425123010 30 101 1.0 3.0 0.00 0.02 0.00 84 1018.7
20190425122508 30 52 1.0 3.0 0.00 0.02 0.00 84 1018.6
20190425122007 30 56 0.0 3.0 0.00 0.02 0.00 84 1018.7
20190425121528 30 56 0.0 3.0 0.00 0.02 0.00 84 1018.8
20190425121006 30 56 1.0 3.0 0.00 0.02 0.00 83 1018.7
20190425120505 30 300 0.0 3.0 0.00 0.02 0.00 84 1018.7
20190425120015 30 30 0.0 2.0 0.00 0.02 0.00 85 1018.8
20190425115503 30 104 0.0 2.0 0.00 0.02 0.00 85 1018.8
20190425115003 30 104 0.0 2.0 0.00 0.02 0.00 85 1018.9
20190425114509 30 104 0.0 2.0 0.00 0.02 0.00 84 1018.8
20190425114004 30 104 0.0 2.0 0.00 0.02 0.00 84 1018.7
20190425113503 30 104 0.0 2.0 0.00 0.02 0.00 84 1018.6
20190425113013 30 104 0.0 1.0 0.00 0.02 0.00 84 1018.7
20190425112502 30 104 0.0 2.0 0.00 0.02 0.00 84 1018.5
20190425112004 30 104 0.0 2.0 0.00 0.02 0.00 83 1018.6
20190425111509 30 104 0.0 2.0 0.00 0.02 0.00 83 1018.7
20190425111004 30 84 0.0 0.0 0.00 0.02 0.00 84 1018.8
20190425110502 30 84 0.0 0.0 0.00 0.02 0.00 83 1018.7
20190425110002 30 84 0.0 2.0 0.00 0.02 0.00 84 1018.7
20190425105500 30 84 0.0 2.0 0.00 0.02 0.00 84 1018.7
20190425105104 30 84 1.0 2.0 0.00 0.02 0.00 83 1018.7
20190425104658 30 84 0.0 2.0 0.00 0.02 0.00 83 1018.8
20190425104059 30 84 0.0 3.0 0.00 0.02 0.00 84 1018.8
20190425103558 30 84 0.0 3.0 0.00 0.02 0.00 83 1018.8
20190425102603 30 82 0.0 2.0 0.00 0.02 0.00 83 1018.7
20190425102100 30 82 0.0 3.0 0.00 0.02 0.00 83 1018.5
20190425101647 30 82 1.0 3.0 0.00 0.02 0.00 82 1018.6
20190425101059 31 86 0.0 2.0 0.00 0.02 0.00 82 1018.5
20190425100555 31 86 0.0 2.0 0.00 0.02 0.00 81 1018.5
20190425100306 31 86 0.0 2.0 0.00 0.02 0.00 81 1018.4
20190425095555 31 86 0.0 2.0 0.00 0.02 0.00 82 1018.5
20190425095055 31 86 0.0 2.0 0.00 0.02 0.00 81 1018.6
20190425094828 31 86 0.0 2.0 0.00 0.02 0.00 82 1018.6
20190425094055 31 355 0.0 0.0 0.00 0.02 0.00 83 1018.6